Flag for U.S.A. Weather past 2 weeks in Temple, Texas, U.S.A.

Now
77 °F

Sunny.


Feels Like: 79 °F
Forecast: 58 / 82 °F
Wind: 16 mph from South

Location: Fort Hood AAF Airport

Current Time: Mar 29, 2015 at 12:44:54 PM

Latest Report: Mar 29, 2015 at 11:58 AM


Visibility: 10 mi

Pressure: 30.04 "Hg

Humidity: 47%

Dew point: 56 °F

Location of TempleLocation

Historic Weather in Temple — Graph

°F

Temple temperature yesterday

Maximum temperature yesterday: 86 °F (at 4:58 PM)
Minimum temperature yesterday: 49 °F (at 7:58 AM)
Average temperature yesterday: 68 °F

Past Weeks' High & Low Weather Summary

 TemperatureHumidityPressure
High86 °F (Mar 28, 4:58 PM)100% (Mar 19, 1:58 AM)30.30 "Hg (Mar 19, 1:58 AM)
Low45 °F (Mar 27, 3:58 AM)17% (Mar 28, 3:58 PM)29.76 "Hg (Mar 25, 5:58 PM)
Average64 °F74%30.05 "Hg
* Reported Mar 14 10:58 AM — Mar 29 10:58 AM, Temple, Weather by CustomWeather, © 2015

Note: Actual official high and low records may vary slightly from our data, if they occured in-between our weather recording intervals... More about our weather records

Advertising

Temple weather history for previous 24 hours

 ConditionsComfort  
Time TempWeatherWind HumidityBarometerVisibility
10:58 AM
Sun, Mar 29
72 °FSunny.15 mph55%30.05 "Hg10 mi
9:58 AM68 °FSunny.13 mph61%30.03 "Hg10 mi
8:58 AM62 °FSunny.12 mph64%30.04 "Hg10 mi
7:58 AM57 °FClear.9 mph67%30.02 "Hg9 mi
6:58 AM57 °FClear.7 mph67%30.00 "Hg10 mi
5:58 AM58 °FClear.8 mph65%29.97 "Hg10 mi
4:58 AM61 °FClear.8 mph63%29.97 "Hg10 mi
3:58 AM62 °FClear.8 mph64%29.97 "Hg10 mi
2:58 AM63 °FClear.10 mph62%29.98 "Hg10 mi
1:58 AM63 °FClear.8 mph60%29.99 "Hg10 mi
12:58 AM66 °FClear.14 mph52%29.99 "Hg10 mi
11:58 PM
Sat, Mar 28
64 °FClear.8 mph48%30.01 "Hg10 mi
10:58 PM68 °FClear.10 mph39%30.01 "Hg10 mi
9:58 PM71 °FClear.10 mph34%30.00 "Hg10 mi
8:58 PM72 °FClear.12 mph32%29.98 "Hg10 mi
7:58 PM76 °FSunny.12 mph26%29.96 "Hg10 mi
6:58 PM82 °FSunny.13 mph19%29.96 "Hg10 mi
5:58 PM85 °FSunny.17 mph17%29.95 "Hg10 mi
4:58 PM86 °FSunny.18 mph17%29.95 "Hg10 mi
3:58 PM86 °FSunny.21 mph17%29.96 "Hg10 mi
2:58 PM85 °FSunny.18 mph19%29.98 "Hg10 mi
1:58 PM84 °FSunny.16 mph20%30.01 "Hg10 mi
12:58 PM81 °FSunny.17 mph23%30.03 "Hg10 mi
Weather by CustomWeather, © 2015

See weather overviewHow to use our weather pages